Lid_Strength_Index
3 3 3 4 4 4 4 4 6 9 12 13 14 13 13 12 12 12 11 9 7 6 6 6 5 4 3 3 3 2 2 2 2 3 3 3 3 3
3 3 3 4 4 4 4 3 4 6 12 12 13 13 12 12 12 12 11 10 8 7 6 6 5 4 4 4 4 4 3 3 4 4 4 4 4 4
3 4 4 4 4 4 4 4 4 7 12 14 13 13 13 12 13 12 12 12 10 8 7 5 5 5 5 5 6 6 5 5 5 5 5 5 4 4
5 5 6 6 6 6 5 6 7 8 10 14 13 13 12 12 12 13 13 12 12 9 8 6 5 5 6 7 7 7 7 7 7 7 6 6 6 5
6 6 7 6 7 7 7 7 8 9 10 13 14 12 13 13 14 14 14 14 12 10 7 7 6 6 6 7 7 7 8 8 8 8 8 8 7 7
10 9 8 7 6 7 7 7 9 10 11 12 12 13 13 13 14 16 16 16 13 10 9 9 8 7 7 7 8 8 8 8 8 9 9 9 8 8
11 11 11 12 11 9 8 8 9 10 11 12 13 14 14 16 15 16 17 14 12 11 11 11 11 10 9 8 8 8 8 8 8 9 9 9 9 9
12 12 12 12 11 10 9 8 8 10 11 11 13 13 15 15 16 16 13 12 13 12 12 12 12 12 11 10 7 7 8 8 8 9 9 9 9 10
13 13 13 13 13 12 11 10 11 9 10 11 13 14 14 14 14 15 14 13 12 16 12 12 12 12 12 10 7 7 8 8 8 9 9 9 9 10
14 14 14 14 13 13 14 14 14 13 13 13 12 13 13 13 13 13 11 17 20 18 15 14 13 13 12 11 8 7 8 8 8 8 9 9 10 10
14 14 14 14 12 12 14 14 15 15 12 11 12 11 11 11 12 13 18 18 18 17 19 17 17 15 14 12 11 9 7 8 8 8 9 9 10 10
14 14 13 14 12 12 15 16 19 17 18 17 16 13 12 11 11 12 13 14 22 15 17 17 18 16 14 12 12 11 12 9 8 8 9 9 10 11
16 16 15 12 12 12 13 16 16 17 16 20 20 19 19 18 18 17 15 16 23 21 17 17 19 18 18 15 13 12 13 13 11 10 9 9 9 11
16 17 16 12 12 12 15 14 13 18 21 23 24 24 23 23 24 23 22 21 21 19 20 20 19 18 16 14 13 12 13 13 12 11 11 10 11 11
16 15 13 12 12 14 13 13 19 22 24 26 26 25 25 26 25 23 25 26 21 20 23 23 20 22 19 14 14 13 14 14 13 13 13 13 13 12
14 15 14 14 15 16 16 16 21 23 24 25 26 26 22 23 24 20 20 19 20 19 17 23 23 20 17 19 19 15 15 15 14 14 14 14 14 13
19 18 19 18 17 19 16 18 17 20 20 19 21 20 21 24 27 21 24 20 21 20 19 17 18 23 22 20 20 16 15 15 15 13 14 14 14 14
17 16 17 17 17 18 16 16 17 17 17 18 18 19 20 25 23 22 20 18 19 20 20 18 17 17 17 19 14 16 19 15 16 14 14 14 15 14
17 16 17 16 17 17 20 20 18 18 18 18 16 16 17 21 24 22 20 20 19 18 19 19 17 16 18 20 19 12 13 19 16 16 14 14 18 15
15 16 18 18 20 20 20 19 21 20 16 16 16 16 17 17 20 20 20 20 20 24 20 25 18 17 18 20 20 20 12 14 14 14 14 14 14 12
15 15 15 18 20 20 19 19 19 18 17 16 16 16 16 17 17 19 20 20 20 22 21 19 18 18 22 24 20 20 20 13 15 19 21 16 15 16
16 17 17 18 18 20 20 19 20 19 19 18 16 16 16 16 17 17 19 20 20 19 20 19 22 20 22 19 18 19 23 21 15 12 12 13 17 19
16 16 16 16 16 18 20 22 21 20 19 19 18 17 16 17 16 17 19 19 19 20 20 21 23 23 20 20 19 18 24 23 22 17 16 12 11 12